Gladstone Observation History
Time Wind Speed Temp Pressure Rel. Hum Rain
25/02:00pm E 15-21 kts 29.8°c 1008.0 hPa 51% 0.0mm
25/01:30pm ENE 17-23 kts 29.7°c 1008.4 hPa 53% 0.0mm
25/01:00pm E 14-20 kts 30.0°c 1008.7 hPa 49% 0.0mm
25/12:30pm E 16-20 kts 29.8°c 1009.0 hPa 56% 0.0mm
25/12:00pm E 15-23 kts 29.3°c 1009.7 hPa 57% 0.0mm
25/11:30am E 14-20 kts 29.6°c 1010.0 hPa 57% 0.0mm
25/11:00am E 15-20 kts 29.2°c 1010.4 hPa 61% 0.0mm
25/10:30am E 14-21 kts 28.8°c 1010.5 hPa 63% 0.0mm
25/10:00am E 14-21 kts 28.2°c 1010.4 hPa 65% 0.0mm
25/09:30am ESE 11-17 kts 28.1°c 1010.6 hPa 70% 0.0mm
25/09:00am ESE 10-17 kts 26.8°c 1010.9 hPa 76% 0.0mm
25/08:30am SE 9-13 kts 25.7°c 1010.8 hPa 79% 0.0mm
25/08:00am SSE 7-13 kts 23.8°c 1010.7 hPa 85% 0.0mm
25/07:30am SE 8-12 kts 23.4°c 1010.5 hPa 90% 0.0mm
25/07:00am SSE 8-13 kts 22.5°c 1010.7 hPa 93% 0.0mm
25/06:30am SSE 7-12 kts 22.2°c 1010.8 hPa 95% 0.0mm
25/06:00am SE 7-11 kts 21.9°c 1010.3 hPa 97% 0.0mm
25/05:30am SE 10-13 kts 21.9°c 1009.8 hPa 98% 0.0mm
25/05:00am SE 9-14 kts 21.9°c 1009.8 hPa 99% 0.0mm
25/04:30am SE 8-11 kts 21.9°c 1009.4 hPa 99% 0.0mm
25/04:00am SSE 8-11 kts 21.6°c 1009.1 hPa 99% 0.0mm
25/03:30am ESE 14-21 kts 21.6°c 1009.1 hPa 99% 0.0mm
25/03:19am ESE 16-25 kts 20.7°c 1009.4 hPa 95% 0.0mm
25/03:07am ESE 12-24 kts 22.1°c 1009.4 hPa 93% 0.0mm
25/03:00am SE 8-11 kts 22.8°c 1009.3 hPa 89% 0.0mm
25/02:30am SE 9-13 kts 22.9°c 1009.0 hPa 88% 0.0mm
25/02:00am SE 9-12 kts 22.8°c 1009.2 hPa 88% 0.0mm
25/01:30am SE 9-12 kts 23.0°c 1009.4 hPa 87% 0.0mm
25/01:00am SE 9-12 kts 23.2°c 1009.9 hPa 88% 0.0mm
25/12:30am SE 10-15 kts 23.6°c 1010.3 hPa 87% 0.0mm
25/12:00am ESE 9-15 kts 23.5°c 1010.9 hPa 88% 0.0mm
Time Wind Speed Temp Pressure Rel. Hum Rain
24/11:30pm SE 9-15 kts 24.2°c 1011.0 hPa 83% 0.0mm
24/11:00pm SE 7-11 kts 24.2°c 1011.4 hPa 82% 0.0mm
24/10:30pm SE 8-15 kts 24.4°c 1011.4 hPa 80% 0.0mm
24/10:00pm E 12-17 kts 25.3°c 1011.4 hPa 79% 0.0mm
24/09:30pm ENE 11-18 kts 25.3°c 1011.2 hPa 82% 0.0mm
24/09:00pm E 9-14 kts 25.5°c 1011.2 hPa 78% 0.0mm
24/08:30pm E 13-19 kts 25.4°c 1011.0 hPa 76% 0.0mm
24/08:00pm E 12-19 kts 25.4°c 1010.8 hPa 77% 0.0mm
24/07:30pm E 12-19 kts 25.4°c 1010.6 hPa 73% 0.0mm
24/07:00pm ESE 14-21 kts 25.8°c 1010.2 hPa 69% 0.0mm
24/06:30pm ESE 17-25 kts 25.9°c 1009.7 hPa 68% 0.0mm
24/06:00pm ESE 17-22 kts 26.2°c 1009.6 hPa 65% 0.0mm
24/05:30pm E 15-22 kts 27.1°c 1009.6 hPa 68% 0.0mm
24/05:00pm E 15-23 kts 26.4°c 1009.7 hPa 68% 0.0mm
24/04:30pm E 15-22 kts 26.6°c 1009.9 hPa 72% 0.0mm
24/04:00pm E 15-20 kts 26.4°c 1009.9 hPa 72% 0.0mm
24/03:30pm E 11-15 kts 26.6°c 1010.1 hPa 69% 0.0mm
24/03:00pm E 11-17 kts 27.0°c 1010.4 hPa 66% 0.0mm
24/02:30pm ENE 4-7 kts 25.9°c 1010.8 hPa 77% 0.0mm
24/02:00pm ENE 12-19 kts 24.1°c 1011.1 hPa 85% 0.0mm
24/01:30pm E 13-18 kts 23.6°c 1011.4 hPa 85% 0.0mm
24/01:00pm ESE 14-20 kts 26.0°c 1011.8 hPa 64% 0.0mm
24/12:30pm ESE 12-19 kts 26.2°c 1011.9 hPa 64% 0.0mm
24/12:00pm ESE 15-21 kts 26.6°c 1012.1 hPa 63% 0.0mm
24/11:30am ESE 17-24 kts 27.6°c 1011.9 hPa 59% 0.0mm
24/11:00am ESE 15-25 kts 28.7°c 1012.2 hPa 56% 0.0mm
24/10:57am ESE 15-25 kts 28.6°c 1012.1 hPa 56% 0.0mm
24/10:30am SE 11-18 kts 26.7°c 1012.4 hPa 67% 0.0mm
24/10:00am SE 14-20 kts 25.8°c 1012.6 hPa 69% 0.0mm
24/09:30am SE 11-18 kts 25.4°c 1013.1 hPa 73% 0.0mm
24/09:00am SSE 11-18 kts 24.1°c 1013.1 hPa 80% 0.0mm
24/08:30am SSE 10-17 kts 23.1°c 1013.2 hPa 91% 0.0mm
24/08:00am SE 11-18 kts 22.1°c 1013.2 hPa 86% 0.0mm
24/07:30am SSE 10-19 kts 22.5°c 1012.7 hPa 82% 0.0mm
24/07:00am SE 9-13 kts 23.0°c 1012.4 hPa 77% 0.0mm
24/06:30am SSE 7-11 kts 23.1°c 1012.0 hPa 77% 0.0mm
24/06:00am S 8-13 kts 22.3°c 1011.9 hPa 80% 0.0mm
24/05:30am SSE 8-12 kts 22.1°c 1011.7 hPa 80% 0.0mm
24/05:00am SSE 9-14 kts 21.9°c 1011.4 hPa 79% 0.0mm
24/04:30am SSE 9-15 kts 22.0°c 1011.2 hPa 78% 0.0mm
24/04:00am SSE 9-14 kts 22.0°c 1010.9 hPa 78% 0.0mm
24/03:30am SSE 9-15 kts 22.0°c 1010.9 hPa 78% 0.0mm
24/03:00am SE 8-12 kts 22.0°c 1011.2 hPa 77% 0.0mm
24/02:30am SSE 9-14 kts 22.2°c 1011.4 hPa 77% 0.0mm
24/02:00am SSE 8-12 kts 22.3°c 1011.9 hPa 76% 0.0mm
24/01:30am SSE 8-12 kts 22.6°c 1012.2 hPa 75% 0.0mm
24/01:00am SSE 9-13 kts 22.7°c 1012.4 hPa 75% 0.0mm
24/12:30am SE 9-12 kts 23.1°c 1012.7 hPa 73% 0.0mm
24/12:00am SE 9-13 kts 23.5°c 1012.9 hPa 71% 0.0mm
Time Wind Speed Temp Pressure Rel. Hum Rain
23/11:30pm SE 11-16 kts 23.8°c 1013.1 hPa 70% 0.0mm
23/11:00pm SE 10-16 kts 24.0°c 1013.3 hPa 68% 0.0mm
23/10:30pm SE 13-19 kts 24.4°c 1013.5 hPa 67% 0.0mm
23/10:00pm ESE 17-22 kts 25.0°c 1013.4 hPa 66% 0.0mm
23/09:30pm E 15-23 kts 25.3°c 1013.5 hPa 66% 0.0mm
23/09:04pm ESE 16-26 kts 25.2°c 1013.3 hPa 65% 0.0mm
23/09:00pm ESE 17-26 kts 25.2°c 1013.2 hPa 65% 0.0mm
23/08:56pm ESE 16-26 kts 25.3°c 1013.1 hPa 64% 0.0mm
23/08:30pm ESE 17-24 kts 25.5°c 1012.9 hPa 66% 0.0mm
23/08:07pm E 16-26 kts 25.3°c 1012.6 hPa 64% 0.0mm
23/08:00pm E 17-24 kts 25.3°c 1012.6 hPa 64% 0.0mm
23/07:30pm E 18-26 kts 25.3°c 1012.3 hPa 64% 0.0mm
23/07:00pm E 17-24 kts 25.3°c 1012.2 hPa 64% 0.0mm
23/06:30pm E 17-24 kts 25.5°c 1011.9 hPa 64% 0.0mm
23/06:00pm E 19-25 kts 25.7°c 1011.6 hPa 67% 0.0mm
23/05:30pm E 17-24 kts 26.3°c 1011.3 hPa 68% 0.0mm
23/05:00pm E 18-27 kts 26.3°c 1010.8 hPa 63% 0.0mm
23/04:30pm E 19-26 kts 27.2°c 1010.5 hPa 60% 0.0mm
23/04:00pm E 18-26 kts 27.8°c 1010.6 hPa 59% 0.0mm
23/03:30pm E 21-27 kts 28.3°c 1010.5 hPa 56% 0.0mm
23/03:00pm E 18-24 kts 29.2°c 1010.8 hPa 54% 0.0mm
23/02:30pm E 18-25 kts 29.4°c 1010.9 hPa 47% 0.0mm
23/02:00pm ENE 17-23 kts 29.8°c 1011.1 hPa 48% 0.0mm
23/01:30pm ENE 16-21 kts 30.3°c 1011.3 hPa 50% 0.0mm
23/01:00pm ENE 16-22 kts 30.2°c 1011.3 hPa 49% 0.0mm
23/12:30pm ENE 16-24 kts 30.0°c 1011.3 hPa 51% 0.0mm
23/12:00pm E 13-19 kts 31.0°c 1011.7 hPa 48% 0.0mm
23/11:30am E 12-18 kts 29.8°c 1012.1 hPa 48% 0.0mm
23/11:00am E 11-17 kts 29.7°c 1012.5 hPa 47% 0.0mm
23/10:30am E 12-17 kts 29.9°c 1012.8 hPa 45% 0.0mm
23/10:00am ESE 10-17 kts 29.7°c 1013.1 hPa 48% 0.0mm
23/09:30am ESE 10-18 kts 28.3°c 1013.1 hPa 51% 0.0mm
23/09:00am ESE 11-16 kts 28.3°c 1012.8 hPa 52% 0.0mm
23/08:30am ESE 12-17 kts 27.6°c 1012.9 hPa 52% 0.0mm
23/08:00am SE 9-14 kts 26.4°c 1012.9 hPa 57% 0.0mm
23/07:30am SE 8-12 kts 25.6°c 1012.9 hPa 60% 0.0mm
23/07:00am SSE 7-11 kts 24.0°c 1012.7 hPa 68% 0.0mm
23/06:30am SSE 7-12 kts 23.1°c 1012.3 hPa 71% 0.0mm
23/06:00am SSE 8-11 kts 22.4°c 1011.8 hPa 74% 0.0mm
23/05:30am SE 8-11 kts 22.1°c 1011.5 hPa 76% 0.0mm
23/05:00am SE 8-11 kts 22.3°c 1011.4 hPa 75% 0.0mm
23/04:30am SE 8-12 kts 22.5°c 1011.0 hPa 74% 0.0mm
23/04:00am SSE 8-13 kts 22.5°c 1010.8 hPa 75% 0.0mm
23/03:30am SSE 8-14 kts 22.6°c 1010.8 hPa 75% 0.0mm
23/03:00am SSE 6-11 kts 22.8°c 1010.9 hPa 74% 0.0mm
23/02:30am SSE 7-10 kts 23.0°c 1010.9 hPa 73% 0.0mm
23/02:00am E 4-7 kts 23.1°c 1011.0 hPa 73% 0.0mm
23/01:30am SE 5-6 kts 23.3°c 1011.3 hPa 72% 0.0mm
23/01:00am SE 6-9 kts 23.8°c 1011.5 hPa 72% 0.0mm
23/12:30am ESE 5-9 kts 24.1°c 1011.8 hPa 70% 0.0mm
23/12:00am E 10-14 kts 24.6°c 1012.1 hPa 71% 0.0mm